TimeCST,TemperatureF,Dew PointF,Humidity,Sea Level PressureIn,VisibilityMPH,Wind Direction,Wind SpeedMPH,Gust SpeedMPH,PrecipitationIn,Events,Conditions,WindDirDegrees,DateUTC
12:53 AM,44.1,35.1,71,30.18,10.0,WSW,6.9,-,N/A,,Clear,250,2013-01-20 06:53:00
1:53 AM,43.0,34.0,71,30.19,10.0,WSW,3.5,-,N/A,,Clear,240,2013-01-20 07:53:00
2:53 AM,41.0,33.1,73,30.21,10.0,West,4.6,-,N/A,,Clear,270,2013-01-20 08:53:00
3:53 AM,41.0,33.1,73,30.21,10.0,WNW,5.8,-,N/A,,Clear,290,2013-01-20 09:53:00
4:53 AM,37.9,32.0,79,30.21,10.0,Calm,Calm,-,N/A,,Clear,0,2013-01-20 10:53:00
5:53 AM,42.1,33.1,70,30.23,10.0,NNW,4.6,-,N/A,,Clear,340,2013-01-20 11:53:00
6:53 AM,42.8,32.0,66,30.25,10.0,North,4.6,-,N/A,,Clear,350,2013-01-20 12:53:00
7:53 AM,44.1,30.9,60,30.27,10.0,North,5.8,-,N/A,,Clear,350,2013-01-20 13:53:00
8:53 AM,46.9,32.0,56,30.29,10.0,ENE,9.2,-,N/A,,Clear,60,2013-01-20 14:53:00
9:53 AM,46.9,30.9,54,30.31,10.0,ENE,15.0,-,N/A,,Clear,60,2013-01-20 15:53:00
10:53 AM,48.0,32.0,54,30.30,10.0,ENE,13.8,20.7,N/A,,Clear,60,2013-01-20 16:53:00
11:53 AM,50.0,30.9,48,30.26,10.0,ENE,9.2,-,N/A,,Clear,60,2013-01-20 17:53:00
12:53 PM,48.9,28.9,46,30.23,10.0,NE,9.2,-,N/A,,Clear,50,2013-01-20 18:53:00
1:53 PM,50.0,28.0,43,30.22,10.0,ENE,10.4,-,N/A,,Clear,70,2013-01-20 19:53:00
2:53 PM,50.0,28.9,44,30.22,10.0,ENE,8.1,-,N/A,,Clear,70,2013-01-20 20:53:00
3:53 PM,50.0,30.0,46,30.21,10.0,ENE,9.2,-,N/A,,Clear,60,2013-01-20 21:53:00
4:53 PM,46.9,28.9,50,30.20,10.0,NE,8.1,-,N/A,,Clear,50,2013-01-20 22:53:00
5:53 PM,44.1,30.0,58,30.21,10.0,NE,11.5,-,N/A,,Clear,40,2013-01-20 23:53:00
6:53 PM,41.0,32.0,70,30.22,10.0,NE,9.2,-,N/A,,Clear,50,2013-01-21 00:53:00
7:53 PM,39.0,30.9,73,30.21,10.0,ENE,6.9,-,N/A,,Clear,60,2013-01-21 01:53:00
8:53 PM,37.0,30.0,76,30.21,10.0,ENE,4.6,-,N/A,,Clear,60,2013-01-21 02:53:00
9:53 PM,35.1,28.0,76,30.22,10.0,ENE,4.6,-,N/A,,Clear,70,2013-01-21 03:53:00
10:53 PM,36.0,27.0,70,30.23,10.0,NE,8.1,-,N/A,,Clear,40,2013-01-21 04:53:00
11:53 PM,35.1,21.9,59,30.23,10.0,NE,10.4,-,N/A,,Clear,40,2013-01-21 05:53:00